Flag for U.S.A. Weather past 2 weeks in Akron, Ohio, U.S.A.

Now
65 °F

Sunny.


Feels Like: 65 °F
Forecast: 51 / 74 °F
Wind: 5 mph from West

Location: Akron Fulton International Airport

Current Time: Apr 18, 2015 at 10:26:16 AM

Latest Report: Apr 18, 2015 at 9:54 AM


Visibility: 10 mi

Pressure: 30.05 "Hg

Humidity: 51%

Dew point: 46 °F

Location of AkronLocation

Historic Weather in Akron — Graph

°F

Akron temperature yesterday

Maximum temperature yesterday: 72 °F (at 5:54 PM)
Minimum temperature yesterday: 50 °F (at 11:54 PM)
Average temperature yesterday: 61 °F

Past Weeks' High & Low Weather Summary

 TemperatureHumidityPressure
High80 °F (Apr 13, 3:54 PM)93% (Apr 3, 8:54 AM)30.33 "Hg (Apr 3, 8:54 AM)
Low31 °F (Apr 4, 8:54 AM)16% (Apr 15, 3:54 PM)29.58 "Hg (Apr 10, 6:54 AM)
Average55 °F63%30.07 "Hg
* Reported Apr 3 8:54 AM — Apr 18 8:54 AM, Akron, Weather by CustomWeather, © 2015

Note: Actual official high and low records may vary slightly from our data, if they occured in-between our weather recording intervals... More about our weather records

Advertising

Akron weather history for previous 24 hours

 ConditionsComfort  
Time TempWeatherWind HumidityBarometerVisibility
8:54 AM
Sat, Apr 18
61 °FSunny.3 mph60%30.04 "Hg10 mi
7:54 AM48 °FFog.No wind86%30.05 "Hg6 mi
6:54 AM45 °FFog.No wind90%30.04 "Hg5 mi
5:54 AM45 °FClear.No wind86%30.03 "Hg7 mi
4:54 AM46 °FClear.No wind86%30.02 "Hg7 mi
3:54 AM47 °FClear.No wind83%30.01 "Hg7 mi
2:54 AM48 °FClear.No wind83%30.01 "Hg7 mi
1:54 AM50 °FClear.No wind80%30.02 "Hg9 mi
12:54 AM52 °FClear.No wind77%30.03 "Hg10 mi
11:54 PM
Fri, Apr 17
50 °FClear.No wind80%30.04 "Hg10 mi
10:54 PM55 °FClear.No wind69%30.04 "Hg10 mi
9:54 PM61 °FClear.No wind58%30.04 "Hg10 mi
8:54 PM63 °FSunny.5 mph47%30.02 "Hg10 mi
7:54 PM68 °FSunny.6 mph40%30.01 "Hg10 mi
6:54 PM72 °FSunny.No wind37%30.00 "Hg10 mi
5:54 PM72 °FSunny.6 mph41%30.00 "Hg10 mi
4:54 PM71 °FSunny.7 mph44%30.01 "Hg10 mi
3:54 PM71 °FPassing clouds.6 mph47%30.02 "Hg10 mi
2:54 PM69 °FPartly sunny.3 mph55%30.04 "Hg10 mi
1:54 PM65 °FPartly sunny.No wind63%30.06 "Hg9 mi
12:54 PM64 °FPartly sunny.3 mph70%30.07 "Hg7 mi
11:54 AM61 °FOvercast.8 mph75%30.09 "Hg5 mi
10:54 AM61 °FCloudy.6 mph81%30.07 "Hg4 mi
Weather by CustomWeather, © 2015

See weather overviewHow to use our weather pages